STARLINK-1801 (46701 NORAD) Tracking and Keplerian Element Data

This shows tracking and keplerian element data for the satellite.

Feedback or suggestion? Click here.




ElementValue
Catalog46701
NameSTARLINK-1801
Epoch Orbit736
Epoch Day336.25001157
Epoch Year2020
RAAN254.2769
Inclination53.0555
Eccentricity0.0001369
Argument of Perigee52.2609
Mean Anonmoly228.8279
Mean Motion15.62686117
Decay Rate0.0007574
L11 46701U 20073AH 20336.25001157 .00075740 00000-0 82748-3 0 9990
L22 46701 53.0555 254.2769 0001369 52.2609 228.8279 15.62686117 7368

Live tracking and technical data element details for STARLINK-1801 (NORAD 46701). STARLINK-1801 can be tracked NOW for your location showing map with azimuth and elevation plus other details from your city location.

Track the satellite on the map from your city or location and see movement details for azimuth, elevation, latitude, longitude, range, height, and movement on the map or in text.







IsCatalogInMostPopularTable: catalog: 46701, numindb: 8
Update: records affected: 1



GetName: 46701 STARLINK-1801

Hit Count: updated at: Wed, 02 Dec 2020 06:37:55 GMT